UTA381 UUWW-ULLI

Flight info

Callsign UTA381
Flight time 1h 5m
Altitude 36000
Route N0454F360 SUNUN3B SUNUN M869 RAVKA N50 NUDKO T561 ODATI T875 GENPA
Aircraft T154/M-SDFGRWY/S

Departure

Time 2026-04-30 21:01
Airport Vnukovo International Airport (UUWW)

Arrival

Time 2026-04-30 22:06
Airport Pulkovo Airport (ULLI)
Time Latitude Longitude Altitude Speed Heading
2026-04-30 20:13 55.60136 37.27744 702 ft 0 kts 64°
2026-04-30 20:50 55.60152 37.27819 702 ft 5 kts 83°
2026-04-30 20:50 55.60138 37.27891 702 ft 7 kts 128°
2026-04-30 20:50 55.60110 37.27947 702 ft 0 kts 135°
2026-04-30 20:50 55.60109 37.27949 702 ft 0 kts 144°
2026-04-30 20:51 55.60097 37.27949 702 ft 2 kts 217°
2026-04-30 20:51 55.60070 37.27827 702 ft 7 kts 244°
2026-04-30 20:51 55.60025 37.27743 702 ft 10 kts 218°
2026-04-30 20:52 55.59969 37.27641 702 ft 12 kts 233°
2026-04-30 20:52 55.59911 37.27511 702 ft 14 kts 226°
2026-04-30 20:52 55.59759 37.27231 702 ft 17 kts 226°
2026-04-30 20:53 55.59671 37.27067 702 ft 19 kts 226°
2026-04-30 20:53 55.59585 37.26908 702 ft 18 kts 228°
2026-04-30 20:53 55.59520 37.26732 702 ft 17 kts 245°
2026-04-30 20:54 55.59421 37.26297 702 ft 20 kts 248°
2026-04-30 20:54 55.59369 37.26060 702 ft 21 kts 248°
2026-04-30 20:54 55.59312 37.25811 702 ft 22 kts 249°
2026-04-30 20:55 55.59192 37.25273 702 ft 24 kts 248°
2026-04-30 20:55 55.59127 37.24988 702 ft 25 kts 248°
2026-04-30 20:55 55.59063 37.24691 702 ft 26 kts 248°
2026-04-30 20:56 55.58941 37.24227 702 ft 20 kts 243°
2026-04-30 20:56 55.58875 37.23999 702 ft 18 kts 243°
2026-04-30 20:56 55.58765 37.23799 702 ft 10 kts 165°
2026-04-30 20:57 55.58715 37.23831 702 ft 0 kts 157°
2026-04-30 20:58 55.58714 37.23832 702 ft 0 kts 157°
2026-04-30 20:58 55.58712 37.23833 702 ft 2 kts 157°
2026-04-30 20:58 55.58674 37.23873 702 ft 9 kts 130°
2026-04-30 20:59 55.58670 37.23991 702 ft 0 kts 67°
2026-04-30 21:00 55.58772 37.24439 702 ft 81 kts 68°
2026-04-30 21:01 55.59506 37.27703 908 ft 176 kts 66°
2026-04-30 21:01 55.59956 37.29698 1462 ft 176 kts 67°
2026-04-30 21:01 55.60863 37.33834 2549 ft 182 kts 68°
2026-04-30 21:02 55.61299 37.35905 3157 ft 179 kts 65°
2026-04-30 21:02 55.61767 37.37895 3789 ft 175 kts 63°
2026-04-30 21:02 55.62162 37.39957 4233 ft 185 kts 80°
2026-04-30 21:02 55.62032 37.42341 4482 ft 204 kts 104°
2026-04-30 21:03 55.61311 37.44558 4798 ft 214 kts 131°
2026-04-30 21:03 55.60136 37.46140 5271 ft 213 kts 146°
2026-04-30 21:03 55.58868 37.47546 5752 ft 222 kts 149°
2026-04-30 21:03 55.57329 37.48254 6241 ft 234 kts 181°
2026-04-30 21:04 55.55790 37.47515 6911 ft 232 kts 213°
2026-04-30 21:04 55.54644 37.45621 7705 ft 225 kts 233°
2026-04-30 21:04 55.52555 37.41308 8784 ft 244 kts 231°
2026-04-30 21:05 55.51447 37.39005 9396 ft 248 kts 230°
2026-04-30 21:05 55.50207 37.36667 9921 ft 274 kts 226°
2026-04-30 21:05 55.48998 37.33900 10377 ft 297 kts 250°
2026-04-30 21:05 55.48627 37.30355 11180 ft 304 kts 275°
2026-04-30 21:06 55.49189 37.26709 11931 ft 313 kts 302°
2026-04-30 21:06 55.50622 37.23950 13134 ft 306 kts 326°
2026-04-30 21:06 55.52362 37.21888 14204 ft 309 kts 327°
2026-04-30 21:06 55.54160 37.19823 15193 ft 314 kts 328°
2026-04-30 21:07 55.55951 37.17427 16003 ft 326 kts 320°
2026-04-30 21:07 55.57649 37.14662 16766 ft 338 kts 319°
2026-04-30 21:07 55.59341 37.11773 17803 ft 340 kts 318°
2026-04-30 21:07 55.61019 37.08860 18769 ft 344 kts 319°
2026-04-30 21:08 55.62752 37.05836 19517 ft 353 kts 319°
2026-04-30 21:08 55.64512 37.02745 20292 ft 361 kts 319°
2026-04-30 21:08 55.66307 36.99591 21165 ft 364 kts 319°
2026-04-30 21:08 55.68103 36.96418 22055 ft 368 kts 320°
2026-04-30 21:09 55.69938 36.93180 22827 ft 373 kts 320°
2026-04-30 21:09 55.71782 36.89935 23444 ft 381 kts 320°
2026-04-30 21:09 55.73713 36.86531 24032 ft 390 kts 320°
2026-04-30 21:09 55.75648 36.83101 24818 ft 392 kts 320°
2026-04-30 21:10 55.77574 36.79672 25529 ft 395 kts 320°
2026-04-30 21:10 55.79542 36.76173 26189 ft 399 kts 320°
2026-04-30 21:10 55.81504 36.72683 26810 ft 404 kts 320°
2026-04-30 21:10 55.83511 36.69109 27440 ft 407 kts 320°
2026-04-30 21:11 55.85509 36.65546 28010 ft 412 kts 320°
2026-04-30 21:11 55.87555 36.61892 28596 ft 416 kts 320°
2026-04-30 21:11 55.89605 36.58224 29146 ft 420 kts 321°
2026-04-30 21:11 55.91664 36.54534 29659 ft 423 kts 321°
2026-04-30 21:12 55.93747 36.50794 30178 ft 426 kts 321°
2026-04-30 21:12 55.95829 36.47051 30651 ft 429 kts 321°
2026-04-30 21:12 55.97960 36.43213 31041 ft 433 kts 321°
2026-04-30 21:12 56.00072 36.39405 31375 ft 436 kts 320°
2026-04-30 21:13 56.02208 36.35544 31680 ft 439 kts 320°
2026-04-30 21:13 56.04383 36.31600 31922 ft 444 kts 319°
2026-04-30 21:13 56.06535 36.27674 32241 ft 444 kts 319°
2026-04-30 21:13 56.08688 36.23748 32610 ft 443 kts 319°
2026-04-30 21:14 56.10858 36.19798 32914 ft 444 kts 319°
2026-04-30 21:14 56.13061 36.15815 33178 ft 446 kts 319°
2026-04-30 21:14 56.15071 36.11607 33524 ft 451 kts 307°
2026-04-30 21:14 56.16553 36.06570 33987 ft 453 kts 300°
2026-04-30 21:15 56.17884 36.01455 34310 ft 454 kts 300°
2026-04-30 21:15 56.19247 35.96346 34596 ft 455 kts 301°
2026-04-30 21:15 56.20831 35.91346 34843 ft 449 kts 313°
2026-04-30 21:15 56.23035 35.87505 35121 ft 441 kts 327°
2026-04-30 21:16 56.25528 35.84259 35527 ft 436 kts 328°
2026-04-30 21:16 56.27997 35.81023 35679 ft 438 kts 327°
2026-04-30 21:16 56.32895 35.74473 35933 ft 441 kts 327°
2026-04-30 21:17 56.35353 35.71182 36046 ft 442 kts 327°
2026-04-30 21:17 56.37854 35.67828 36136 ft 444 kts 327°
2026-04-30 21:17 56.42818 35.61159 36217 ft 450 kts 327°
2026-04-30 21:18 56.47906 35.54313 36204 ft 455 kts 327°
2026-04-30 21:18 56.53007 35.47425 36194 ft 460 kts 327°
2026-04-30 21:19 56.58129 35.40483 36187 ft 462 kts 327°
2026-04-30 21:19 56.63297 35.33364 36154 ft 463 kts 326°
2026-04-30 21:20 56.68431 35.26225 36145 ft 464 kts 326°
2026-04-30 21:20 56.73556 35.19107 36148 ft 463 kts 326°
2026-04-30 21:21 56.78695 35.11952 36147 ft 462 kts 326°
2026-04-30 21:22 56.86313 35.01302 36149 ft 460 kts 326°
2026-04-30 21:23 56.96698 34.87825 36147 ft 453 kts 331°
2026-04-30 21:23 57.04618 34.78424 36147 ft 451 kts 331°
2026-04-30 21:24 57.09882 34.72098 36141 ft 450 kts 331°
2026-04-30 21:24 57.15126 34.65805 36074 ft 451 kts 331°
2026-04-30 21:25 57.23022 34.56310 36112 ft 450 kts 331°
2026-04-30 21:26 57.30604 34.46006 36122 ft 451 kts 327°
2026-04-30 21:27 57.38077 34.35363 36116 ft 451 kts 328°
2026-04-30 21:27 57.40697 34.32267 36075 ft 444 kts 339°
2026-04-30 21:27 57.43515 34.29991 36127 ft 442 kts 339°
2026-04-30 21:28 57.51498 34.21214 36120 ft 446 kts 331°
2026-04-30 21:29 57.59304 34.11590 36112 ft 447 kts 330°
2026-04-30 21:30 57.72218 33.95454 36114 ft 446 kts 331°
2026-04-30 21:31 57.85070 33.79250 36111 ft 446 kts 330°
2026-04-30 21:32 57.92504 33.68552 36105 ft 449 kts 326°
2026-04-30 21:32 57.97352 33.61132 36103 ft 449 kts 327°
2026-04-30 21:33 58.04588 33.50074 35423 ft 442 kts 327°
2026-04-30 21:33 58.06973 33.46418 35062 ft 438 kts 327°
2026-04-30 21:34 58.09312 33.42827 34721 ft 434 kts 327°
2026-04-30 21:34 58.13997 33.35654 33911 ft 430 kts 328°
2026-04-30 21:34 58.16305 33.32103 33558 ft 427 kts 327°
2026-04-30 21:35 58.18580 33.28567 33308 ft 422 kts 327°
2026-04-30 21:35 58.20829 33.25073 33093 ft 417 kts 328°
2026-04-30 21:35 58.23071 33.21597 32888 ft 411 kts 328°
2026-04-30 21:35 58.25265 33.18189 32673 ft 406 kts 328°
2026-04-30 21:36 58.27435 33.14817 32456 ft 402 kts 328°
2026-04-30 21:36 58.29586 33.11467 32238 ft 397 kts 328°
2026-04-30 21:37 58.35887 33.01626 31588 ft 383 kts 329°
2026-04-30 21:37 58.37938 32.98414 31365 ft 379 kts 329°
2026-04-30 21:37 58.39987 32.95198 31131 ft 375 kts 329°
2026-04-30 21:37 58.41983 32.92062 30877 ft 371 kts 329°
2026-04-30 21:38 58.43966 32.88939 30625 ft 367 kts 329°
2026-04-30 21:38 58.45920 32.85862 30241 ft 366 kts 329°
2026-04-30 21:38 58.47877 32.82775 29927 ft 362 kts 329°
2026-04-30 21:38 58.49811 32.79715 29664 ft 358 kts 330°
2026-04-30 21:39 58.51710 32.76706 29393 ft 354 kts 330°
2026-04-30 21:39 58.53606 32.73704 28963 ft 353 kts 330°
2026-04-30 21:39 58.55488 32.70718 28635 ft 350 kts 330°
2026-04-30 21:39 58.57370 32.67723 28279 ft 348 kts 330°
2026-04-30 21:40 58.59228 32.64769 27874 ft 346 kts 329°
2026-04-30 21:40 58.61078 32.61816 27472 ft 345 kts 330°
2026-04-30 21:40 58.62926 32.58870 27056 ft 343 kts 329°
2026-04-30 21:40 58.64747 32.55952 26752 ft 339 kts 329°
2026-04-30 21:41 58.66546 32.53067 26376 ft 336 kts 330°
2026-04-30 21:41 58.68327 32.50213 25966 ft 334 kts 330°
2026-04-30 21:41 58.70124 32.47332 25530 ft 333 kts 330°
2026-04-30 21:41 58.71908 32.44464 25100 ft 331 kts 329°
2026-04-30 21:42 58.73669 32.41627 24715 ft 328 kts 329°
2026-04-30 21:42 58.75396 32.38842 24245 ft 328 kts 329°
2026-04-30 21:42 58.77138 32.36029 23807 ft 325 kts 329°
2026-04-30 21:42 58.78862 32.33236 23368 ft 323 kts 328°
2026-04-30 21:43 58.80597 32.30403 22886 ft 322 kts 328°
2026-04-30 21:43 58.82295 32.27635 22422 ft 320 kts 328°
2026-04-30 21:43 58.83992 32.24874 21949 ft 318 kts 328°
2026-04-30 21:43 58.85677 32.22134 21497 ft 315 kts 328°
2026-04-30 21:44 58.87350 32.19405 21100 ft 311 kts 328°
2026-04-30 21:44 58.88985 32.16737 20702 ft 307 kts 328°
2026-04-30 21:44 58.90614 32.14077 20295 ft 303 kts 328°
2026-04-30 21:44 58.92207 32.11475 19900 ft 299 kts 328°
2026-04-30 21:45 58.93790 32.08882 19519 ft 295 kts 328°
2026-04-30 21:45 58.95356 32.06318 19133 ft 292 kts 327°
2026-04-30 21:45 58.96886 32.03808 18768 ft 288 kts 327°
2026-04-30 21:45 58.98414 32.01296 18400 ft 284 kts 328°
2026-04-30 21:46 58.99920 31.98824 17976 ft 282 kts 328°
2026-04-30 21:46 59.01407 31.96380 17533 ft 281 kts 327°
2026-04-30 21:46 59.02885 31.93944 17094 ft 279 kts 328°
2026-04-30 21:46 59.04369 31.91497 16656 ft 277 kts 327°
2026-04-30 21:47 59.05839 31.89067 16222 ft 276 kts 327°
2026-04-30 21:47 59.07285 31.86676 15814 ft 273 kts 327°
2026-04-30 21:47 59.08730 31.84279 15406 ft 270 kts 327°
2026-04-30 21:47 59.10151 31.81926 14998 ft 268 kts 327°
2026-04-30 21:48 59.11563 31.79503 14505 ft 271 kts 324°
2026-04-30 21:48 59.12915 31.76948 14027 ft 272 kts 322°
2026-04-30 21:48 59.14267 31.74348 13553 ft 272 kts 323°
2026-04-30 21:48 59.15620 31.71771 13097 ft 271 kts 323°
2026-04-30 21:49 59.16959 31.69230 12672 ft 270 kts 322°
2026-04-30 21:49 59.18293 31.66695 12252 ft 270 kts 323°
2026-04-30 21:49 59.19649 31.64121 11836 ft 269 kts 322°
2026-04-30 21:49 59.20994 31.61564 11466 ft 268 kts 322°
2026-04-30 21:50 59.22316 31.59041 11171 ft 265 kts 322°
2026-04-30 21:50 59.23641 31.56518 10869 ft 265 kts 322°
2026-04-30 21:50 59.24955 31.54011 10587 ft 265 kts 322°
2026-04-30 21:50 59.26274 31.51491 10321 ft 265 kts 322°
2026-04-30 21:51 59.27607 31.48943 10072 ft 267 kts 321°
2026-04-30 21:51 59.28936 31.46394 9842 ft 267 kts 321°
2026-04-30 21:51 59.30266 31.43841 9624 ft 268 kts 321°
2026-04-30 21:51 59.31591 31.41294 9410 ft 268 kts 321°
2026-04-30 21:52 59.32932 31.38715 9197 ft 268 kts 321°
2026-04-30 21:52 59.34267 31.36141 8991 ft 267 kts 321°
2026-04-30 21:52 59.35581 31.33604 8781 ft 268 kts 320°
2026-04-30 21:52 59.36918 31.31004 8544 ft 269 kts 320°
2026-04-30 21:53 59.38241 31.28430 8320 ft 269 kts 320°
2026-04-30 21:53 59.39588 31.25818 8106 ft 269 kts 320°
2026-04-30 21:53 59.40923 31.23230 7899 ft 268 kts 320°
2026-04-30 21:53 59.42245 31.20662 7731 ft 266 kts 320°
2026-04-30 21:54 59.43544 31.18134 7623 ft 260 kts 320°
2026-04-30 21:54 59.44837 31.15620 7512 ft 260 kts 320°
2026-04-30 21:54 59.46135 31.13097 7424 ft 260 kts 320°
2026-04-30 21:54 59.47424 31.10588 7342 ft 260 kts 320°
2026-04-30 21:55 59.48717 31.08065 7259 ft 260 kts 320°
2026-04-30 21:55 59.49956 31.05636 7158 ft 247 kts 320°
2026-04-30 21:55 59.51145 31.03300 7043 ft 233 kts 320°
2026-04-30 21:55 59.52262 31.01109 6906 ft 222 kts 321°
2026-04-30 21:56 59.53350 30.98982 6780 ft 219 kts 321°
2026-04-30 21:56 59.54442 30.96851 6653 ft 217 kts 321°
2026-04-30 21:56 59.55506 30.94764 6568 ft 213 kts 321°
2026-04-30 21:56 59.56545 30.92724 6457 ft 210 kts 321°
2026-04-30 21:57 59.57583 30.90682 6400 ft 205 kts 320°
2026-04-30 21:57 59.58585 30.88708 6329 ft 201 kts 321°
2026-04-30 21:57 59.59578 30.86755 6202 ft 200 kts 321°
2026-04-30 21:57 59.60566 30.84811 6042 ft 201 kts 321°
2026-04-30 21:58 59.61565 30.82845 5891 ft 204 kts 320°
2026-04-30 21:58 59.62578 30.80843 5820 ft 203 kts 320°
2026-04-30 21:58 59.63577 30.78866 5756 ft 202 kts 320°
2026-04-30 21:58 59.64565 30.76909 5689 ft 202 kts 320°
2026-04-30 21:59 59.65564 30.74930 5618 ft 201 kts 320°
2026-04-30 21:59 59.66555 30.72968 5514 ft 202 kts 321°
2026-04-30 21:59 59.67553 30.70995 5402 ft 204 kts 320°
2026-04-30 22:00 59.69575 30.67004 5158 ft 206 kts 320°
2026-04-30 22:00 59.71620 30.62995 4764 ft 196 kts 320°
2026-04-30 22:00 59.72557 30.61148 4442 ft 184 kts 320°
2026-04-30 22:01 59.73445 30.59384 4059 ft 178 kts 320°
2026-04-30 22:01 59.74147 30.57377 3641 ft 178 kts 305°
2026-04-30 22:01 59.74717 30.55354 3341 ft 157 kts 304°
2026-04-30 22:01 59.75175 30.53468 2877 ft 150 kts 299°
2026-04-30 22:02 59.75539 30.51551 2490 ft 151 kts 295°
2026-04-30 22:02 59.75867 30.49519 2374 ft 156 kts 292°
2026-04-30 22:02 59.76164 30.47471 2242 ft 150 kts 291°
2026-04-30 22:02 59.76440 30.45518 2019 ft 146 kts 292°
2026-04-30 22:03 59.76723 30.43589 1757 ft 143 kts 292°
2026-04-30 22:03 59.77003 30.41736 1539 ft 138 kts 292°
2026-04-30 22:03 59.77282 30.39917 1359 ft 138 kts 291°
2026-04-30 22:03 59.77566 30.38065 1181 ft 139 kts 291°
2026-04-30 22:04 59.77848 30.36204 992 ft 141 kts 290°
2026-04-30 22:04 59.78135 30.34324 795 ft 143 kts 288°
2026-04-30 22:04 59.78682 30.30643 355 ft 135 kts 288°
2026-04-30 22:05 59.78943 30.28872 185 ft 131 kts 287°
2026-04-30 22:05 59.79200 30.27185 87 ft 118 kts 285°
2026-04-30 22:05 59.79397 30.25843 84 ft 77 kts 288°
2026-04-30 22:05 59.79525 30.25001 84 ft 58 kts 285°
2026-04-30 22:06 59.79629 30.24273 84 ft 52 kts 286°
2026-04-30 22:06 59.79790 30.23321 82 ft 22 kts 302°
2026-04-30 22:06 59.79871 30.23123 81 ft 13 kts 313°
2026-04-30 22:07 59.79924 30.23029 80 ft 7 kts 343°
2026-04-30 22:07 59.79966 30.23045 80 ft 4 kts 42°
2026-04-30 22:07 59.79977 30.23117 79 ft 6 kts 98°
2026-04-30 22:07 59.79962 30.23223 80 ft 8 kts 105°
2026-04-30 22:08 59.79944 30.23358 80 ft 11 kts 105°
2026-04-30 22:08 59.79920 30.23519 80 ft 13 kts 107°
2026-04-30 22:08 59.79891 30.23706 81 ft 15 kts 106°
2026-04-30 22:08 59.79859 30.23917 82 ft 16 kts 106°
2026-04-30 22:09 59.79824 30.24158 82 ft 19 kts 106°
2026-04-30 22:09 59.79785 30.24427 82 ft 21 kts 106°
2026-04-30 22:09 59.79740 30.24725 82 ft 23 kts 106°
2026-04-30 22:09 59.79695 30.25033 83 ft 22 kts 106°
2026-04-30 22:10 59.79657 30.25297 83 ft 17 kts 106°
2026-04-30 22:10 59.79621 30.25540 83 ft 19 kts 106°
2026-04-30 22:10 59.79580 30.25816 83 ft 21 kts 106°
2026-04-30 22:10 59.79538 30.26096 83 ft 18 kts 107°
2026-04-30 22:11 59.79522 30.26357 83 ft 7 kts 32°
2026-04-30 22:11 59.79585 30.26400 82 ft 11 kts 16°
2026-04-30 22:11 59.79670 30.26450 81 ft 14 kts 15°
2026-04-30 22:12 59.79773 30.26510 81 ft 14 kts 17°
2026-04-30 22:12 59.79836 30.26548 81 ft 4 kts 16°
2026-04-30 22:12 59.79858 30.26576 81 ft 3 kts 65°
2026-04-30 22:12 59.79858 30.26634 81 ft 5 kts 96°
2026-04-30 22:13 59.79855 30.26697 81 ft 2 kts 94°
2026-04-30 22:13 59.79854 30.26726 81 ft 1 kts 92°
2026-04-30 22:13 59.79854 30.26734 81 ft 0 kts 94°